Tracking 17842 objects as of 30-August-2016
HD Live streaming from Space Station
objects crossing your sky now

ARIANE 44L R/B

Track ARIANE 44L R/B now!


NORAD ID: 26696
Int'l Code: 2001-005C
Perigee: 300.2 km
Apogee: 32,339.1 km
Inclination: 7.3 °
Period: 566.9 minutes
Semi major axis: 22690 km
RCS: 23.3181 m2 (large)
Launch date: February 7, 2001
Source: France (FR)
Launch site: FRENCH GUIANA (FRGUI)

Note: This is a ROCKET BODY
Your satellite tracking list
Your tracking list is empty





NASA's NSSDC Master Catalog

Two Line Element Set (TLE):
1 26696U 01005C   16242.50888577 +.00001503 +00000-0 +10035-2 0  9998
2 26696 007.2702 353.0548 7059949 356.9776 000.2588 02.54087356135724
Source of the keplerian elements: AFSPC

N2YO: 497